Weather History for Nassau, Bahamas

Change the Weather History Date:

Wednesday, November 23, 2011

  Actual Average Record
Temperature  
Mean Temperature 76 °F -  
Max Temperature 85 °F 80 °F 87 °F (2011)
Min Temperature 68 °F 65 °F 35 °F (1996)
Cooling Degree Days 12    
Growing Degree Days 26 (Base 50)    
Moisture  
Dew Point 67 °F    
Average Humidity 73    
Maximum Humidity 94    
Minimum Humidity 40    
Precipitation  
Precipitation 0.00 in 0.07 in - ()
Sea Level Pressure  
Sea Level Pressure 30.08 in    
Wind  
Wind Speed 3 mph ()    
Max Wind Speed 6 mph    
Max Gust Speed -    
Visibility 6.7 miles    
Events      
Averages and records for this station are not official NWS values.
T = Trace of Precipitation, MM = Missing Value Source: Averaged Metar Reports

Daily Weather History Graph

Daily Weather History Graph

Search for Another Location

Airport:

Trip Planner

Search our weather history database for the weather conditions in past years. The results will help you decide how hot, cold, wet, or windy it might be!

Date:

Astronomy

Nov. 23, 2011 Rise Set
Actual Time 6:32 AM EST 5:20 PM EST
Civil Twilight 6:07 AM EST 5:44 PM EST
Nautical Twilight 5:39 AM EST 6:12 PM EST
Astronomical Twilight 5:12 AM EST 6:40 PM EST
Moon 4:38 AM EST (11/23) 3:57 PM EST (11/23)
Length of Visible Light 11h 37m
Length of Day
10h 48m
Waning Crescent, 4% of the Moon is Illuminated
Nov 23
Waning Crescent
Nov 25
New
Dec 2
First Quarter
Dec 10
Full
Dec 17
Last Quarter

Hourly Weather History & Observations

Time (EST) Temp. Heat Index Dew Point Humidity Pressure Visibility Wind Dir Wind Speed Gust Speed Precip Events Conditions
12:00 AM 75.2 °F - 69.8 °F 83% 30.13 in 6.2 mi East 4.6 mph - N/A   Partly Cloudy
1:00 AM 73 °F - 68 °F 80% 30.13 in 9 mi East 5.8 mph - -   Scattered Clouds
1:00 AM 73.4 °F - 68.0 °F 83% 30.12 in 6.2 mi East 5.8 mph - N/A   Partly Cloudy
2:00 AM 75.2 °F - 71.6 °F 89% 30.10 in 6.2 mi ENE 5.8 mph - N/A   Partly Cloudy
3:00 AM 75.2 °F - 71.6 °F 89% 30.09 in 6.2 mi Calm Calm - N/A   Partly Cloudy
4:00 AM 73 °F - 65 °F 70% 30.08 in 9 mi Calm Calm - -   Scattered Clouds
4:00 AM 73.4 °F - 66.2 °F 78% 30.11 in 6.2 mi Calm Calm - N/A   Partly Cloudy
5:00 AM 73.4 °F - 71.6 °F 94% 30.08 in 6.2 mi Calm Calm - N/A   Partly Cloudy
6:00 AM 73.4 °F - 71.6 °F 94% 30.09 in 6.2 mi Calm Calm - N/A   Partly Cloudy
7:00 AM 69 °F - 67 °F 92% 30.11 in 9 mi Calm Calm - -   Scattered Clouds
7:00 AM 69.8 °F - 68.0 °F 94% 30.10 in 6.2 mi Calm Calm - N/A   Partly Cloudy
8:00 AM 77.0 °F - 73.4 °F 89% 30.12 in 6.2 mi East 3.5 mph - N/A   Partly Cloudy
9:00 AM 82.4 °F 85.4 °F 68.0 °F 62% 30.11 in 6.2 mi ESE 5.8 mph - N/A   Partly Cloudy
10:00 AM 82 °F - 67 °F 52% 30.11 in 9 mi ESE 3.5 mph - -   Scattered Clouds
10:00 AM 82.4 °F 85.4 °F 68.0 °F 62% 30.11 in 6.2 mi ESE 3.5 mph - N/A   Partly Cloudy
11:00 AM 86.0 °F 86.6 °F 62.6 °F 45% 30.09 in 6.2 mi SE 4.6 mph - N/A   Scattered Clouds
12:00 PM 87.8 °F 87.6 °F 60.8 °F 40% 30.07 in 6.2 mi SE 3.5 mph - N/A   Scattered Clouds
1:00 PM 83 °F - 69 °F 53% 30.04 in 9 mi NNW 5.8 mph - -   Scattered Clouds
1:00 PM 84.2 °F 87.3 °F 68.0 °F 58% 30.04 in 6.2 mi NNW 5.8 mph - N/A   Partly Cloudy
2:00 PM 84.2 °F 85.6 °F 64.4 °F 51% 30.03 in 6.2 mi Calm Calm - N/A   Scattered Clouds
3:00 PM 82.4 °F 83.9 °F 64.4 °F 54% 30.03 in 6.2 mi North 4.6 mph - N/A   Scattered Clouds
4:00 PM 79 °F - 69 °F 63% 30.04 in 9 mi North 5.8 mph - -   Partly Cloudy
4:00 PM 78.8 °F - 68.0 °F 69% 30.03 in 6.2 mi North 5.8 mph - N/A   Scattered Clouds
5:00 PM 80.6 °F 82.3 °F 64.4 °F 58% 30.03 in 6.2 mi NE 5.8 mph - N/A   Partly Cloudy
6:00 PM 78.8 °F - 64.4 °F 61% 30.05 in 6.2 mi Calm Calm - N/A   Partly Cloudy
7:00 PM 75 °F - 68 °F 74% 30.06 in 9 mi Calm Calm - -   Scattered Clouds
7:00 PM 75.2 °F - 68.0 °F 78% 30.06 in 6.2 mi Calm Calm - N/A   Partly Cloudy
8:00 PM 71.6 °F - 66.2 °F 83% 30.07 in 6.2 mi Calm Calm - N/A   Partly Cloudy
9:00 PM 68.0 °F - 64.4 °F 88% 30.06 in 6.2 mi Calm Calm - N/A   Partly Cloudy
10:00 PM 71 °F - 66 °F 80% 30.08 in 4 mi Calm Calm - -   Scattered Clouds
10:00 PM 69.8 °F - 66.2 °F 88% 30.07 in 6.2 mi Calm Calm - N/A   Partly Cloudy
11:00 PM 68.0 °F - 64.4 °F 88% - 6.2 mi Calm Calm - N/A   Partly Cloudy